Location: Axtheid
(49.6213°N, 11.8205°E)
Time: 08:04:15
(UTC+00:00)

Cosmos 1725 Rocket - Pass Details

Date: 18 February 2020
Orbit: 963 x 989 km, 82.9° (Epoch: 30 March)

Event Time Altitude Azimuth Distance (km) Brightness Sun altitude
Rises 05:43:19 0° 346° (NNW) 3,681 6.8 -6.3°
Reaches altitude 10° 05:45:54 10° 341° (NNW) 2,733 6.1 -5.9°
Maximum altitude 05:51:52 49° 270° (W) 1,253 4.3 -5.0°
Drops below altitude 10° 05:57:50 10° 197° (SSW) 2,733 6.3 -4.0°
Sets 06:00:26 0° 192° (SSW) 3,680 7.1 -3.6°
